STARLINK-4389, 53475

Orbit data source: Space-Track

STARLINK-4389, 53475 is a payload satellite owned by SpaceX/Seattle (US) in SSO that was launched on Fri, 12 Aug 2022 UTC via an FALCON 9 launch vehicle from the Air Force Western Test Range (AFWTR). Payload-class satellites include a variety of spacecraft equipped with specific instruments for various scientific and technological missions. These include communications satellites like Starlink; space stations such as the ISS; scientific satellites like the Hubble; Earth observation satellites from companies like Planet Labs, Umbra, and HawkEye 360; GPS; miniature CubeSats for education and research; and military/defense satellites.

Loading next visibility...
Identifier
53475, 2022-099L
Orbit
SSO
Country
Flag of USUS
Related business
Manufacturer
SpaceX/Seattle
Mission
Operational Commercial Communications
Bus & Motor
STARLINK, Unknown motor
Mass
300 kg wet, ~275 kg dry
Launch date (UTC)
2022-08-12 (3 years ago)
Launch vehicle
FALCON 9
Launch site
Air Force Western Test Range (AFWTR)
Object type
Payload
Rocket body
Debris
Shape & HBR
Box + 1 Pan, 10.1 m
Radar Cross Section
13.562 m², Large (>1 m²)

Expand to show TLE details & history
Last TLE update: 18 hours ago

TLE from 18 hours ago
0 STARLINK-4389
1 53475U 22099L   25346.86293882  .00005671  00000-0  44526-3 0  9995
2 53475  97.6021 105.2125 0002007 146.7193 213.4158 15.01294540183655
Epoch: 2025-12-12T20:42Z
TLE epoch observation values (Epoch: 2025-12-12T20:42:37.914Z)
Latitude
0.00001°
Longitude
72.75606°
Altitude
567.126 km
Speed
7.577 km/s
True Right ascension
07h 00m 50s
True Declination
0° 00' 00"
Sunlit
Object was in full shadow at epoch
Visualization orbit readout
Latitude
Unknown
Longitude
Unknown
Altitude
Unknown
Speed
Unknown
Apparent Right ascension
Unknown
Apparent Declination
Unknown
Sunlit
N/A
Visualization observer readout
Local Sidereal Time
13:12:34
Azimuth
Unknown
Elevation
Unknown
Doppler factor
Unknown
Orbital elements
Apogee altitude
561.295 km
Perigee altitude
558.51 km
Semi-major axis
6,938.04 km
Eccentricity
0.0002
Inclination
97.6021°
RAAN
105.2125°
Arg. of periapsis
146.7193°
True anomaly
213.40314°
Mean anomaly
213.4158°
Eccentric anomaly
213.40947°
Mean motion
3.75568 °/min
Orbital period
95.85 mins
BSTAR
0.00044526
Loading maneuver chart data...
Computing Atmospheric mass density...
Loading historical data...
Loading historical data...
Loading historical data...
Loading historical data...
Loading historical data...
Loading historical data...
Loading historical data...

Documentation

Showing up to 5 results
|